AirNav   Duncan Aviation - Near you to keep you flying
 
 1268 users online  

KSAS Salton Sea Airport
Salton City, California, USA

GOING TO SALTON CITY?


FAA INFORMATION EFFECTIVE 16 JUNE 2022

Location

FAA Identifier: SAS
Lat/Long: 33-14-28.3000N 115-57-09.3000W
33-14.471667N 115-57.155000W
33.2411944,-115.9525833
(estimated)
Elevation: -84 ft. / -26 m (estimated)
Variation: 13E (1985)
From city: 1 mile SW of SALTON CITY, CA
Time zone: UTC -7 (UTC -8 during Standard Time)
Zip code: 92275

Airport Operations

Airport use: Open to the public
Activation date: 01/1960
Control tower: no
ARTCC: LOS ANGELES CENTER
FSS: SAN DIEGO FLIGHT SERVICE STATION
NOTAMs facility: SAN (NOTAM-D service available)
Attendance: UNATNDD
Pattern altitude: 716 ft. MSL
Wind indicator: yes
Segmented circle: yes

Airport Communications

CTAF: 122.9
WX AWOS-3P at L08 (19 nm W): 126.575 (760-767-3308)

Nearby radio navigation aids

VOR radial/distance  VOR name  Freq  Var
TRMr143/25.4THERMAL VORTAC116.2013E
JLIr064/32.4JULIAN VORTAC114.0015E
IPLr309/37.0IMPERIAL VORTAC115.9014E

Airport Services

Parking: tiedowns
Airframe service: NONE
Powerplant service: NONE
Bottled oxygen: NONE
Bulk oxygen: NONE

Runway Information

Runway 7/25

Dimensions: 5000 x 75 ft. / 1524 x 23 m
Surface: gravel, in good condition
Weight bearing capacity: 
Single wheel: 28.0
Runway edge markings: RY 07 AND RY 25 WHITE THLD BARS ARE ONLY MARKINGS ON RY.
RUNWAY 7  RUNWAY 25
Latitude: 33-14.433833N33-14.508167N
Longitude: 115-57.644333W115-56.667000W
Traffic pattern: rightleft
Runway end identifier lights: nono

Airport Ownership and Management from official FAA records

Ownership: Privately-owned
Owner: BURRTEC WASTE INDUSTRIES
9890 CHERRY AVENUE
FONTANA, CA 92335
Phone (909) 429-4200
Manager: DEBBIE HANSEN
9890 CHERRY AVENUE
FONTANA, CA 92335
Phone (909) 429-4200

Airport Operational Statistics

Aircraft operations: avg 29/month *
86% transient general aviation
14% military
* for 12-month period ending 31 December 2019

Additional Remarks

LOOSE GRVL INVOF PARKING AREA.
OCCASIONAL ULTRALIGHT ACTIVITY ON WEEKENDS.
FOR CD CTC LOS ANGELES ARTCC AT 661-575-2079.

Instrument Procedures

There are no published instrument procedures at KSAS.

Some nearby airports with instrument procedures:

L08 - Borrego Valley Airport (19 nm W)
KCLR - Cliff Hatfield Memorial Airport (23 nm E)
KTRM - Jacqueline Cochran Regional Airport (25 nm NW)
KBWC - Brawley Municipal Airport (26 nm SE)
KNJK - El Centro NAF Airport (Vraciu Field) (29 nm SE)
 
Loc | Ops | Rwys | IFR | FBO | Links
Com | Nav | Svcs | Stats | Notes
Area around KSAS (Salton Sea Airport)
 
Road maps at: MapQuest Bing Google
 
Aerial photo
WARNING: Photo may not be current or correct
Aerial photo of KSAS (Salton Sea Airport)
Photo by Mark Holtzman
Photo taken 12-May-2017
looking west.

Do you have a better or more recent aerial photo of Salton Sea Airport that you would like to share? If so, please send us your photo.

 
Sectional chart

 
Airport distance calculator
Flying to Salton Sea Airport? Find the distance to fly.

From to KSAS

Sunrise and sunset
Times for 04-Jul-2022
 Local
(UTC-7)
 Zulu
(UTC)
Morning civil twilight05:1212:12
Sunrise05:4112:41
Sunset19:5602:56
Evening civil twilight20:2403:24

Current date and time
Zulu (UTC)  04-Jul-2022 23:08:16
Local (UTC-7)  04-Jul-2022 16:08:16
 
METAR
KL08 
19nm W 
042255Z AUTO 12007G14KT 10SM CLR 38/M07 A2974 RMK AO2
KTRM 
26nm NW 
042252Z AUTO 13007KT 110V180 10SM CLR 38/01 A2971 RMK AO2 SLP065 T03780011
KNJK 
29nm SE 
042256Z AUTO 12008KT 10SM CLR 39/06 A2972 RMK AO2 SLP080 T03890056 $
KIPL 
31nm SE 
042253Z AUTO 32003KT 10SM CLR 38/03 A2971 RMK AO2 SLP061 T03780033
TAF
KTRM 
26nm NW 
041720Z 0418/0518 VRB05KT P6SM SKC FM042000 14009KT P6SM SKC FM050100 33012G20KT P6SM SKC FM050800 33011KT P6SM SKC FM051100 33006KT P6SM SKC
KIPL 
31nm SE 
041738Z 0418/0518 18006KT P6SM SKC FM050100 26012G22KT P6SM SKC FM050700 26006KT P6SM SKC FM051000 VRB04KT P6SM SKC
NOTAMs
Click for the latest NOTAMs
NOTAMs are issued by the DoD/FAA and will open in a separate window not controlled by AirNav.

 

 
 

Would you like to see your business listed on this page?

 If your business provides an interesting product or service to pilots, flight crews, aircraft, or users of the Salton Sea Airport, you should consider listing it here.  To start the listing process, click on the button below
 
Add a business
 

Other Pages about Salton Sea Airport

Update a link
 
Copyright © AirNav, LLC. All rights reserved. Privacy Policy  Contact